Location: Grand Rapids
(42.9630°N, 85.6680°W)
Time: 07:10:04
(UTC-04:00)

Tiros 1 - Pass Details

Date: 20 April 2025
Orbit: 620 x 652 km, 48.4° (Epoch: 13 May)

Event Time Altitude Azimuth Distance (km) Brightness Sun altitude
Exits shadow 05:01:04 14° 168° (SSE) 1,812 9.2 -18.9°
Maximum altitude 05:03:21 19° 134° (SE) 1,555 9.2 -18.6°
Drops below altitude 10° 05:06:37 10° 91° (E) 2,054 10.5 -18.1°
Sets 05:09:32 0° 73° (ENE) 2,969 11.9 -17.7°
